Preview of NWS' New Version of Forecast
This preview is not operational and should not be used for support decisions.

Regional Weather Roundup (RWR)

Issued by National Weather Service (NWS)

                            
000
ASCA42 TJSJ 231310
RWRPR 
PUERTO RICO/U.S. VIRGIN ISLANDS HOURLY WEATHER ROUNDUP
NATIONAL WEATHER SERVICE SAN JUAN PR
900 AM AST THU MAY 23 2019

PRZ001>002-007>008-010-231400-
PUERTO RICO
  
CITY           SKY/WX    TMP DP  RH WIND       PRES   REMARKS
SAN JUAN LMM   PTSUNNY   82  73  74 E10       29.97S                  
AGUADILLA      SUNNY     81  73  78 E8        29.99R                  
$$

VIZ001>002-231400-
U.S. VIRGIN ISLANDS
  
CITY           SKY/WX    TMP DP  RH WIND       PRES   REMARKS
CHARLOTTE AMA  SUNNY     82  72  69 SE12      29.97S                  
CHRISTIANSTED  MOSUNNY   82  73  74 E12       29.99R                  
$$

HOURLY WEATHER ROUNDUP FOR THE NEWS MEDIA
  
CITY           SKY/WX    TMP DP  RH WIND       PRES   REMARKS
ORLANDO        FAIR      80  68  66 NE5       30.18R                  
NEW YORK       LGT RAIN  55  53  93 SE6       30.23R                  
NEWARK         LGT RAIN  58  54  86 S6        30.20R                  
CHICAGO        PTSUNNY   64  51  62 W12G21    29.97R                  
HARTFORD       CLOUDY    58  46  64 S14       30.23R                  
BOSTON         PTSUNNY   62  46  55 SW16      30.20S                  
DALLAS         CLOUDY    78  71  79 SE13G21   29.97R                  
PHILADELPHIA   PTSUNNY   66  48  52 SE7       30.20F                  
LOS ANGELES    CLOUDY    58  49  72 E8        29.86R                  
WASHINGTON DC  PTSUNNY   66  55  67 S10       30.16S